Location: *
(37.5724°S, 58.0067°E)
Time: 11:33:14
(UTC+00:00)

Lacrosse 5 - Pass Details

Date: 17 January 2021
Orbit: 715 x 724 km, 57.0° (Epoch: 22 February)

Event Time Altitude Azimuth Distance (km) Brightness Sun altitude
Exits shadow 20:49:31 44° 148° (SSE) 1,008 2.9 -31.4°
Drops below altitude 10° 20:53:03 10° 140° (SE) 2,241 5.1 -31.3°
Sets 20:55:28 0° 139° (SE) 3,168 6.0 -31.2°
